Location: Dampvalley
(47.9094°N, 6.1967°E)
Time: 20:08:56
(UTC+00:00)

IDEFIX/ARIANE 42P - Pass Details

Date: 05 March 2021
Orbit: 784 x 803 km, 98.4° (Epoch: 20 April)

Event Time Altitude Azimuth Distance (km) Brightness Sun altitude
Rises 02:28:16 0° 15° (NNE) 3,305 6.4 -35.8°
Reaches altitude 10° 02:30:37 10° 16° (NNE) 2,368 5.6 -35.5°
Enters shadow 02:33:13 30° 21° (NNE) 1,386 4.1 -35.2°
